San Angelo, TX

9:18 PM CDT on May 22, 2018 (GMT -0500)
San Angelo Regional-Mathis

Weather History for KSJT - October, 2012

Change the Weather History Date:

Saturday, October 27, 2012

  Actual Average Record
Temperature  
Mean Temperature 46 °F 63 °F  
Max Temperature 55 °F 76 °F 91 °F (2014)
Min Temperature 37 °F 50 °F 26 °F (1997)
Degree Days  
Heating Degree Days 19 4  
Month to date heating degree days 78 60  
Since 1 July heating degree days 80 69  
Cooling Degree Days 0 2  
Month to date cooling degree days 141 110  
Year to date cooling degree days 3185 2475  
Moisture  
Dew Point 26 °F    
Average Humidity 49    
Maximum Humidity 70    
Minimum Humidity 28    
Precipitation  
Precipitation 0.00 in 0.08 in 1.28 in (1976)
Month to date precipitation 0.49 2.45  
Year to date precipitation 21.78 18.98  
Snow  
Snow 0.00 in 0.00 in 0.00 in (2002)
Month to date snowfall T 0.0  
Since 1 July snowfall T 0.0  
Snow Depth 0.00 in    
Sea Level Pressure  
Sea Level Pressure 30.28 in    
Wind  
Wind Speed 6 mph (NE)    
Max Wind Speed 18 mph    
Max Gust Speed 23 mph    
Visibility 10 miles    
Events      
T = Trace of Precipitation, MM = Missing Value Source: NWS Daily Summary

Daily Weather History Graph

Daily Weather History Graph

Search for Another Location

Airport or City:

Astronomy

Oct. 27, 2012 Rise Set
Actual Time 7:54 AM CDT 6:56 PM CDT
Civil Twilight 7:29 AM CDT 7:21 PM CDT
Nautical Twilight 7:00 AM CDT 7:50 PM CDT
Astronomical Twilight 6:32 AM CDT 8:18 PM CDT
Moon 5:40 PM CDT (10/27) 5:56 AM CDT (10/27)
Length of Visible Light 11h 52m
Length of Day
11h 02m
Waxing Gibbous, 96% of the Moon is Illuminated
Oct 27
Waxing Gibbous
Oct 29
Full
Nov 6
Last Quarter
Nov 13
New
Nov 20
First Quarter

Hourly Weather History & Observations

Time (CDT) Temp. Windchill Dew Point Humidity Pressure Visibility Wind Dir Wind Speed Gust Speed Precip Events Conditions
12:51 AM 48.0 °F - 26.1 °F 42% 30.34 in 10.0 mi NNE 12.7 mph - N/A   Overcast
1:51 AM 46.0 °F 39.3 °F 25.0 °F 44% 30.33 in 10.0 mi NNE 16.1 mph 23.0 mph N/A   Mostly Cloudy
2:51 AM 44.1 °F 38.1 °F 26.1 °F 49% 30.32 in 10.0 mi NNE 11.5 mph - N/A   Clear
3:51 AM 45.0 °F 40.1 °F 27.0 °F 49% 30.31 in 10.0 mi NNE 9.2 mph - N/A   Overcast
4:51 AM 45.0 °F 38.5 °F 26.1 °F 48% 30.30 in 10.0 mi NNE 13.8 mph - N/A   Overcast
5:51 AM 44.1 °F 37.7 °F 25.0 °F 47% 30.32 in 10.0 mi NNE 12.7 mph - N/A   Overcast
6:51 AM 43.0 °F 36.0 °F 26.1 °F 51% 30.33 in 10.0 mi NE 13.8 mph - N/A   Overcast
7:51 AM 42.1 °F 37.1 °F 25.0 °F 51% 30.35 in 10.0 mi NE 8.1 mph - N/A   Overcast
9:51 AM 43.0 °F 37.7 °F 26.1 °F 51% 30.36 in 10.0 mi NE 9.2 mph - N/A   Overcast
10:51 AM 45.0 °F 40.1 °F 27.0 °F 49% 30.36 in 10.0 mi NNE 9.2 mph - N/A   Overcast
11:51 AM 46.0 °F 41.9 °F 27.0 °F 47% 30.34 in 10.0 mi NE 8.1 mph - N/A   Overcast
12:51 PM 48.9 °F - 26.1 °F 41% 30.31 in 10.0 mi NE 5.8 mph - N/A   Overcast
1:51 PM 50.0 °F - 24.1 °F 36% 30.26 in 10.0 mi NE 5.8 mph - N/A   Mostly Cloudy
2:51 PM 53.1 °F - 21.9 °F 30% 30.22 in 10.0 mi NE 3.5 mph - N/A   Overcast
3:51 PM 53.1 °F - 23.0 °F 31% 30.20 in 10.0 mi Calm Calm - N/A   Overcast
4:51 PM 54.0 °F - 23.0 °F 30% 30.19 in 10.0 mi Calm Calm - N/A   Overcast
5:51 PM 54.0 °F - 21.9 °F 29% 30.18 in 10.0 mi Calm Calm - N/A   Overcast
6:51 PM 53.1 °F - 24.1 °F 32% 30.18 in 10.0 mi Calm Calm - N/A   Overcast
7:51 PM 52.0 °F - 28.9 °F 41% 30.19 in 10.0 mi East 3.5 mph - N/A   Overcast
8:51 PM 46.0 °F - 30.9 °F 56% 30.21 in 10.0 mi Calm Calm - N/A   Scattered Clouds
9:51 PM 46.0 °F 44.8 °F 34.0 °F 63% 30.22 in 10.0 mi SE 3.5 mph - N/A   Scattered Clouds
10:51 PM 43.0 °F - 33.1 °F 68% 30.24 in 10.0 mi Calm Calm - N/A   Clear
11:51 PM 39.0 °F - 30.0 °F 70% 30.25 in 10.0 mi Calm Calm - N/A   Clear